| time (UTC) | temp C | wind direction | speed KPH | gust KPH | rain 1hr cm | rain 24hr cm | rain mn cm | humidity % | barometer mb |
| 20260503181143 | 12 | 245 | 6.4 | 12.9 | 0.00 | 0.00 | 0.00 | 81 | 1013.1 |
| 20260503180640 | 12 | 252 | 6.4 | 12.9 | 0.00 | 0.00 | 0.00 | 82 | 1013.1 |
| 20260503180132 | 12 | 264 | 4.8 | 6.4 | 0.00 | 0.00 | 0.00 | 82 | 1013.2 |
| 20260503175623 | 12 | 278 | 11.3 | 16.1 | 0.00 | 0.00 | 0.00 | 82 | 1013.3 |
| 20260503175120 | 12 | 260 | 12.9 | 16.1 | 0.00 | 0.00 | 0.00 | 83 | 1013.2 |
| 20260503174617 | 12 | 256 | 1.6 | 12.9 | 0.00 | 0.00 | 0.00 | 85 | 1013.1 |
| 20260503174114 | 12 | 249 | 3.2 | 8.0 | 0.00 | 0.00 | 0.00 | 85 | 1013.3 |
| 20260503173609 | 12 | 252 | 4.8 | 8.0 | 0.00 | 0.00 | 0.00 | 84 | 1013.1 |
| 20260503173106 | 13 | 249 | 1.6 | 4.8 | 0.00 | 0.00 | 0.00 | 83 | 1013.0 |
| 20260503172603 | 12 | 267 | 4.8 | 6.4 | 0.00 | 0.00 | 0.00 | 83 | 1013.0 |
| 20260503172100 | 12 | 247 | 3.2 | 6.4 | 0.00 | 0.00 | 0.00 | 86 | 1013.0 |
| 20260503171556 | 12 | 235 | 4.8 | 8.0 | 0.00 | 0.00 | 0.00 | 86 | 1012.9 |
| 20260503171054 | 12 | 246 | 1.6 | 6.4 | 0.00 | 0.00 | 0.00 | 87 | 1012.8 |
| 20260503170549 | 12 | 253 | 1.6 | 1.6 | 0.00 | 0.00 | 0.00 | 88 | 1012.9 |
| 20260503150942 | 11 | 229 | 1.6 | 1.6 | 0.00 | 0.00 | 0.00 | 94 | 1012.2 |
| 20260503150433 | 11 | 247 | 0.0 | 4.8 | 0.00 | 0.00 | 0.00 | 95 | 1012.2 |
| 20260503131326 | 10 | 243 | 0.0 | 0.0 | 0.00 | 0.00 | 0.00 | 98 | 1010.7 |
| 20260503130824 | 10 | 252 | 1.6 | 4.8 | 0.00 | 0.00 | 0.00 | 98 | 1010.6 |
| 20260503130321 | 10 | 238 | 1.6 | 1.6 | 0.00 | 0.00 | 0.00 | 98 | 1010.6 |
| 20260503110709 | 10 | 274 | 0.0 | 0.0 | 0.00 | 0.00 | 0.00 | 98 | 1010.6 |
| 20260503110206 | 10 | 253 | 0.0 | 0.0 | 0.00 | 0.00 | 0.00 | 98 | 1010.8 |
| 20260503100132 | 10 | 238 | 0.0 | 0.0 | 0.00 | 0.00 | 0.00 | 98 | 1010.6 |
| 20260503081516 | 10 | 249 | 0.0 | 0.0 | 0.00 | 0.00 | 0.00 | 95 | 1011.6 |
| 20260503081013 | 10 | 249 | 0.0 | 0.0 | 0.00 | 0.00 | 0.00 | 95 | 1011.6 |
| 20260503080509 | 10 | 248 | 0.0 | 0.0 | 0.00 | 0.00 | 0.00 | 94 | 1011.5 |
| 20260503072443 | 10 | 260 | 0.0 | 0.0 | 0.00 | 0.00 | 0.00 | 96 | 1011.7 |
| 20260503071940 | 10 | 264 | 0.0 | 0.0 | 0.00 | 0.00 | 0.00 | 96 | 1011.7 |
| 20260503071437 | 10 | 264 | 0.0 | 0.0 | 0.00 | 0.00 | 0.00 | 96 | 1011.7 |
| 20260503070933 | 10 | 264 | 0.0 | 0.0 | 0.00 | 0.00 | 0.00 | 96 | 1011.7 |
| 20260503070430 | 10 | 257 | 0.0 | 0.0 | 0.00 | 0.00 | 0.00 | 96 | 1011.6 |
| 20260503054843 | 10 | 231 | 0.0 | 0.0 | 0.00 | 0.00 | 0.00 | 95 | 1012.1 |
| 20260503054339 | 10 | 238 | 0.0 | 0.0 | 0.00 | 0.00 | 0.00 | 95 | 1012.0 |
| 20260503053837 | 10 | 257 | 0.0 | 0.0 | 0.00 | 0.00 | 0.00 | 94 | 1012.1 |
| 20260503053336 | 10 | 247 | 0.0 | 0.0 | 0.00 | 0.00 | 0.00 | 94 | 1012.2 |
| 20260503052831 | 10 | 238 | 0.0 | 0.0 | 0.00 | 0.00 | 0.00 | 94 | 1012.1 |
| 20260503052329 | 10 | 260 | 0.0 | 0.0 | 0.00 | 0.00 | 0.00 | 94 | 1012.2 |
| 20260503051825 | 11 | 247 | 0.0 | 0.0 | 0.00 | 0.00 | 0.00 | 94 | 1012.3 |
| 20260503051321 | 11 | 253 | 0.0 | 0.0 | 0.00 | 0.00 | 0.00 | 94 | 1012.2 |
| 20260503050818 | 11 | 261 | 0.0 | 1.6 | 0.00 | 0.00 | 0.00 | 94 | 1012.1 |
| 20260503050314 | 11 | 247 | 0.0 | 0.0 | 0.00 | 0.00 | 0.00 | 94 | 1012.2 |
| 20260503045812 | 10 | 263 | 0.0 | 1.6 | 0.00 | 0.00 | 0.00 | 94 | 1012.2 |
| 20260503045310 | 10 | 268 | 0.0 | 1.6 | 0.00 | 0.00 | 0.00 | 93 | 1012.2 |
| 20260503044806 | 11 | 243 | 0.0 | 0.0 | 0.00 | 0.00 | 0.00 | 93 | 1012.1 |
| 20260503044303 | 11 | 237 | 0.0 | 6.4 | 0.00 | 0.00 | 0.00 | 93 | 1012.1 |
| 20260503043800 | 11 | 239 | 0.0 | 0.0 | 0.00 | 0.00 | 0.00 | 93 | 1012.1 |
| 20260503043257 | 11 | 254 | 0.0 | 1.6 | 0.00 | 0.00 | 0.00 | 93 | 1012.2 |
| 20260503042753 | 11 | 264 | 0.0 | 1.6 | 0.00 | 0.00 | 0.00 | 92 | 1012.1 |
| 20260503042250 | 11 | 253 | 0.0 | 1.6 | 0.00 | 0.00 | 0.00 | 92 | 1012.0 |
| 20260503041745 | 11 | 223 | 1.6 | 1.6 | 0.00 | 0.00 | 0.00 | 92 | 1012.0 |
| 20260503041244 | 11 | 228 | 3.2 | 4.8 | 0.00 | 0.00 | 0.00 | 91 | 1012.0 |
| 20260503040741 | 11 | 253 | 0.0 | 4.8 | 0.00 | 0.00 | 0.00 | 91 | 1011.9 |
| 20260503040239 | 11 | 255 | 0.0 | 1.6 | 0.00 | 0.00 | 0.00 | 91 | 1012.0 |
| 20260503035735 | 11 | 257 | 0.0 | 0.0 | 0.00 | 0.00 | 0.00 | 91 | 1011.8 |
| 20260503035232 | 11 | 251 | 0.0 | 0.0 | 0.00 | 0.00 | 0.00 | 91 | 1011.7 |
| 20260503034730 | 11 | 245 | 0.0 | 1.6 | 0.00 | 0.00 | 0.00 | 91 | 1011.7 |
| 20260503034226 | 11 | 253 | 0.0 | 0.0 | 0.00 | 0.00 | 0.00 | 90 | 1011.6 |
| 20260503033724 | 11 | 272 | 0.0 | 1.6 | 0.00 | 0.00 | 0.00 | 90 | 1011.7 |
| 20260503033221 | 11 | 259 | 0.0 | 1.6 | 0.00 | 0.00 | 0.00 | 90 | 1011.6 |
| 20260503032720 | 11 | 294 | 0.0 | 1.6 | 0.00 | 0.00 | 0.00 | 90 | 1011.4 |
| 20260503032218 | 11 | 259 | 0.0 | 0.0 | 0.00 | 0.00 | 0.00 | 90 | 1011.2 |
| 20260503031714 | 11 | 246 | 0.0 | 1.6 | 0.00 | 0.00 | 0.00 | 90 | 1011.5 |
| 20260503031213 | 11 | 259 | 3.2 | 6.4 | 0.00 | 0.00 | 0.00 | 89 | 1011.4 |
| 20260503030708 | 11 | 245 | 0.0 | 4.8 | 0.00 | 0.00 | 0.00 | 90 | 1011.4 |
| 20260503030205 | 11 | 237 | 3.2 | 6.4 | 0.00 | 0.00 | 0.00 | 90 | 1011.4 |
| 20260503025702 | 11 | 273 | 0.0 | 0.0 | 0.00 | 0.00 | 0.00 | 90 | 1011.2 |
| 20260503025200 | 11 | 269 | 4.8 | 6.4 | 0.00 | 0.00 | 0.00 | 89 | 1011.5 |
| 20260503024656 | 11 | 251 | 0.0 | 0.0 | 0.00 | 0.00 | 0.00 | 89 | 1011.5 |
| 20260503024154 | 11 | 253 | 0.0 | 0.0 | 0.00 | 0.00 | 0.00 | 89 | 1011.5 |
| 20260503023650 | 11 | 265 | 0.0 | 0.0 | 0.00 | 0.00 | 0.00 | 89 | 1011.5 |
| 20260503023147 | 11 | 260 | 0.0 | 4.8 | 0.00 | 0.00 | 0.00 | 89 | 1011.4 |
| 20260503022644 | 11 | 239 | 0.0 | 0.0 | 0.00 | 0.00 | 0.00 | 88 | 1011.4 |
| 20260503022143 | 11 | 241 | 0.0 | 0.0 | 0.00 | 0.00 | 0.00 | 88 | 1011.4 |
| 20260503021640 | 11 | 290 | 3.2 | 8.0 | 0.00 | 0.00 | 0.00 | 88 | 1011.5 |
| 20260503021136 | 11 | 267 | 1.6 | 4.8 | 0.00 | 0.00 | 0.00 | 88 | 1011.6 |
| 20260503020634 | 11 | 264 | 4.8 | 11.3 | 0.00 | 0.00 | 0.00 | 88 | 1011.6 |
| 20260503020131 | 11 | 237 | 3.2 | 4.8 | 0.00 | 0.00 | 0.00 | 87 | 1011.6 |
| 20260503015628 | 11 | 255 | 4.8 | 8.0 | 0.00 | 0.00 | 0.00 | 86 | 1011.6 |
| 20260503015125 | 12 | 263 | 1.6 | 4.8 | 0.00 | 0.00 | 0.00 | 87 | 1011.7 |
| 20260503014620 | 12 | 269 | 3.2 | 8.0 | 0.00 | 0.00 | 0.00 | 86 | 1011.7 |
| 20260503014118 | 12 | 258 | 3.2 | 8.0 | 0.00 | 0.00 | 0.00 | 86 | 1011.7 |
| 20260503013615 | 12 | 244 | 4.8 | 11.3 | 0.00 | 0.00 | 0.00 | 85 | 1011.8 |
| 20260503013114 | 12 | 265 | 3.2 | 6.4 | 0.00 | 0.00 | 0.00 | 86 | 1011.9 |
| 20260503012611 | 12 | 271 | 4.8 | 6.4 | 0.00 | 0.00 | 0.00 | 85 | 1011.8 |
| 20260503012107 | 12 | 261 | 3.2 | 8.0 | 0.00 | 0.00 | 0.00 | 84 | 1011.8 |
| 20260503011603 | 12 | 252 | 1.6 | 4.8 | 0.00 | 0.00 | 0.00 | 84 | 1011.8 |
| 20260503011101 | 12 | 233 | 0.0 | 1.6 | 0.00 | 0.00 | 0.00 | 85 | 1011.8 |
| 20260503010557 | 12 | 251 | 0.0 | 8.0 | 0.00 | 0.00 | 0.00 | 86 | 1011.8 |
| 20260503010055 | 12 | 253 | 3.2 | 6.4 | 0.00 | 0.00 | 0.00 | 86 | 1011.8 |
| 20260503005551 | 12 | 228 | 3.2 | 17.7 | 0.00 | 0.00 | 0.00 | 85 | 1011.8 |
| 20260503005049 | 12 | 262 | 3.2 | 11.3 | 0.00 | 0.00 | 0.00 | 85 | 1011.9 |
| 20260503004544 | 12 | 288 | 3.2 | 12.9 | 0.00 | 0.00 | 0.00 | 85 | 1011.9 |
| 20260503004043 | 12 | 267 | 4.8 | 11.3 | 0.00 | 0.00 | 0.00 | 85 | 1011.9 |
| 20260503003539 | 12 | 258 | 0.0 | 11.3 | 0.00 | 0.00 | 0.00 | 84 | 1011.9 |
| 20260503003037 | 12 | 238 | 3.2 | 12.9 | 0.00 | 0.00 | 0.00 | 85 | 1011.9 |
| 20260503002533 | 12 | 235 | 6.4 | 12.9 | 0.00 | 0.00 | 0.00 | 85 | 1011.9 |
| 20260503002030 | 12 | 242 | 6.4 | 8.0 | 0.00 | 0.00 | 0.00 | 84 | 1012.0 |
| 20260503001527 | 12 | 262 | 8.0 | 16.1 | 0.00 | 0.00 | 0.00 | 84 | 1011.9 |
| 20260503001024 | 12 | 255 | 3.2 | 6.4 | 0.00 | 0.00 | 0.00 | 84 | 1011.9 |
| 20260503000522 | 13 | 252 | 4.8 | 16.1 | 0.00 | 0.00 | 0.00 | 84 | 1011.9 |
| 20260503000018 | 13 | 260 | 8.0 | 8.0 | 0.00 | 0.00 | 0.00 | 83 | 1011.9 |
| 20260502235515 | 13 | 239 | 8.0 | 17.7 | 0.00 | 0.00 | 0.00 | 84 | 1011.9 |
| 20260502235013 | 13 | 260 | 9.7 | 16.1 | 0.00 | 0.00 | 0.00 | 82 | 1012.0 |
| 20260502234509 | 13 | 246 | 4.8 | 11.3 | 0.00 | 0.00 | 0.00 | 82 | 1012.0 |
| 20260502234007 | 14 | 250 | 1.6 | 6.4 | 0.00 | 0.00 | 0.00 | 81 | 1012.0 |
| 20260502233506 | 14 | 255 | 4.8 | 16.1 | 0.00 | 0.00 | 0.00 | 82 | 1011.9 |
| 20260502233004 | 15 | 251 | 4.8 | 11.3 | 0.00 | 0.00 | 0.00 | 81 | 1011.9 |
| 20260502232500 | 15 | 275 | 6.4 | 6.4 | 0.00 | 0.00 | 0.00 | 80 | 1012.1 |
| 20260502231957 | 14 | 250 | 1.6 | 6.4 | 0.00 | 0.00 | 0.00 | 80 | 1012.3 |
| 20260502231454 | 14 | 287 | 3.2 | 6.4 | 0.00 | 0.00 | 0.00 | 81 | 1012.3 |
| 20260502230952 | 14 | 275 | 3.2 | 8.0 | 0.00 | 0.00 | 0.00 | 81 | 1012.2 |
| 20260502230450 | 14 | 251 | 0.0 | 6.4 | 0.00 | 0.00 | 0.00 | 82 | 1012.3 |
| 20260502225947 | 14 | 263 | 0.0 | 8.0 | 0.00 | 0.00 | 0.00 | 82 | 1012.4 |
| 20260502225444 | 14 | 283 | 4.8 | 6.4 | 0.00 | 0.00 | 0.00 | 82 | 1012.3 |
| 20260502224941 | 14 | 262 | 3.2 | 4.8 | 0.00 | 0.00 | 0.00 | 82 | 1012.5 |
| 20260502224437 | 14 | 253 | 3.2 | 6.4 | 0.00 | 0.00 | 0.00 | 82 | 1012.5 |
| 20260502223934 | 14 | 227 | 0.0 | 6.4 | 0.00 | 0.00 | 0.00 | 84 | 1012.6 |
| 20260502223432 | 13 | 247 | 3.2 | 6.4 | 0.00 | 0.00 | 0.00 | 83 | 1012.7 |
| 20260502222930 | 13 | 265 | 4.8 | 4.8 | 0.00 | 0.00 | 0.00 | 84 | 1012.7 |
| 20260502222427 | 13 | 275 | 1.6 | 6.4 | 0.00 | 0.00 | 0.00 | 84 | 1012.7 |
| 20260502221922 | 13 | 264 | 4.8 | 6.4 | 0.00 | 0.00 | 0.00 | 85 | 1012.7 |
| 20260502221419 | 13 | 249 | 3.2 | 16.1 | 0.00 | 0.00 | 0.00 | 87 | 1012.8 |
| 20260502220917 | 13 | 261 | 8.0 | 12.9 | 0.00 | 0.00 | 0.00 | 86 | 1012.8 |
| 20260502220412 | 13 | 251 | 14.5 | 17.7 | 0.00 | 0.00 | 0.00 | 86 | 1012.9 |
| 20260502215909 | 15 | 247 | 11.3 | 17.7 | 0.00 | 0.00 | 0.00 | 85 | 1012.8 |
| 20260502215407 | 15 | 265 | 0.0 | 4.8 | 0.00 | 0.00 | 0.00 | 84 | 1012.8 |
| 20260502214903 | 15 | 268 | 4.8 | 6.4 | 0.00 | 0.00 | 0.00 | 83 | 1013.0 |
| 20260502214400 | 14 | 266 | 0.0 | 4.8 | 0.00 | 0.00 | 0.00 | 85 | 1013.0 |
| 20260502213857 | 13 | 243 | 4.8 | 8.0 | 0.00 | 0.00 | 0.00 | 85 | 1013.0 |
| 20260502213354 | 13 | 291 | 1.6 | 11.3 | 0.00 | 0.00 | 0.00 | 86 | 1013.0 |
| 20260502212853 | 13 | 255 | 8.0 | 12.9 | 0.00 | 0.00 | 0.00 | 86 | 1013.1 |
| 20260502212351 | 14 | 275 | 3.2 | 6.4 | 0.00 | 0.00 | 0.00 | 86 | 1013.1 |
| 20260502211848 | 14 | 246 | 0.0 | 4.8 | 0.00 | 0.00 | 0.00 | 85 | 1013.3 |
| 20260502211343 | 14 | 245 | 1.6 | 6.4 | 0.00 | 0.00 | 0.00 | 86 | 1013.3 |
| 20260502210841 | 13 | 271 | 3.2 | 6.4 | 0.00 | 0.00 | 0.00 | 87 | 1013.3 |
| 20260502210338 | 13 | 248 | 8.0 | 11.3 | 0.00 | 0.00 | 0.00 | 88 | 1013.2 |
| 20260502205835 | 13 | 262 | 4.8 | 8.0 | 0.00 | 0.00 | 0.00 | 86 | 1013.3 |
| 20260502205331 | 13 | 262 | 1.6 | 8.0 | 0.00 | 0.00 | 0.00 | 87 | 1013.4 |
| 20260502204828 | 14 | 262 | 11.3 | 16.1 | 0.00 | 0.00 | 0.00 | 86 | 1013.4 |
| 20260502204326 | 14 | 234 | 9.7 | 11.3 | 0.00 | 0.00 | 0.00 | 86 | 1013.3 |
| 20260502203823 | 14 | 239 | 0.0 | 1.6 | 0.00 | 0.00 | 0.00 | 85 | 1013.3 |
| 20260502203321 | 14 | 263 | 4.8 | 8.0 | 0.00 | 0.00 | 0.00 | 86 | 1013.4 |
| 20260502202820 | 13 | 243 | 3.2 | 6.4 | 0.00 | 0.00 | 0.00 | 87 | 1013.5 |
| 20260502202319 | 14 | 256 | 4.8 | 16.1 | 0.00 | 0.00 | 0.00 | 87 | 1013.5 |
| 20260502201816 | 15 | 240 | 0.0 | 6.4 | 0.00 | 0.00 | 0.00 | 85 | 1013.4 |
| 20260502201312 | 14 | 255 | 4.8 | 8.0 | 0.00 | 0.00 | 0.00 | 86 | 1013.4 |
| 20260502200808 | 15 | 265 | 3.2 | 11.3 | 0.00 | 0.00 | 0.00 | 85 | 1013.4 |
| 20260502200304 | 15 | 265 | 1.6 | 6.4 | 0.00 | 0.00 | 0.00 | 83 | 1013.5 |
| 20260502195803 | 14 | 235 | 8.0 | 11.3 | 0.00 | 0.00 | 0.00 | 85 | 1013.5 |
| 20260502195259 | 15 | 264 | 8.0 | 8.0 | 0.00 | 0.00 | 0.00 | 82 | 1013.6 |
| 20260502194755 | 15 | 277 | 1.6 | 6.4 | 0.00 | 0.00 | 0.00 | 82 | 1013.5 |
| 20260502194253 | 15 | 271 | 1.6 | 6.4 | 0.00 | 0.00 | 0.00 | 84 | 1013.5 |
| 20260502193748 | 15 | 333 | 0.0 | 4.8 | 0.00 | 0.00 | 0.00 | 83 | 1013.5 |
| 20260502193246 | 15 | 271 | 4.8 | 4.8 | 0.00 | 0.00 | 0.00 | 82 | 1013.5 |
| 20260502192746 | 14 | 266 | 1.6 | 8.0 | 0.00 | 0.00 | 0.00 | 83 | 1013.6 |
| 20260502192238 | 15 | 247 | 6.4 | 8.0 | 0.00 | 0.00 | 0.00 | 81 | 1013.6 |
| 20260502191735 | 15 | 254 | 1.6 | 8.0 | 0.00 | 0.00 | 0.00 | 81 | 1013.7 |
| 20260502191233 | 15 | 265 | 0.0 | 4.8 | 0.00 | 0.00 | 0.00 | 82 | 1013.6 |
| 20260502190730 | 14 | 259 | 4.8 | 12.9 | 0.00 | 0.00 | 0.00 | 84 | 1013.7 |
| 20260502190227 | 14 | 129 | 4.8 | 6.4 | 0.00 | 0.00 | 0.00 | 84 | 1013.6 |
| 20260502185727 | 15 | 257 | 6.4 | 6.4 | 0.00 | 0.00 | 0.00 | 83 | 1013.6 |
| 20260502185224 | 15 | 243 | 0.0 | 0.0 | 0.00 | 0.00 | 0.00 | 83 | 1013.5 |
| 20260502184720 | 15 | 178 | 1.6 | 6.4 | 0.00 | 0.00 | 0.00 | 83 | 1013.6 |
| 20260502184216 | 14 | 267 | 0.0 | 1.6 | 0.00 | 0.00 | 0.00 | 84 | 1013.5 |
| 20260502183713 | 13 | 245 | 4.8 | 6.4 | 0.00 | 0.00 | 0.00 | 85 | 1013.6 |
| 20260502183208 | 13 | 256 | 8.0 | 11.3 | 0.00 | 0.00 | 0.00 | 86 | 1013.6 |
| 20260502182704 | 14 | 255 | 4.8 | 11.3 | 0.00 | 0.00 | 0.00 | 84 | 1013.6 |
| 20260502182200 | 14 | 262 | 0.0 | 1.6 | 0.00 | 0.00 | 0.00 | 86 | 1013.6 |
| 20260502181657 | 13 | 250 | 0.0 | 4.8 | 0.00 | 0.00 | 0.00 | 88 | 1013.6 |